Location: Poughquag
(41.6090°N, 73.6820°W)
Time: 03:42:18
(UTC-04:00)

Explorer 11/Cluster Stage 4 - Pass Details

Date: 05 June 2020
Orbit: 467 x 1259 km, 28.8° (Epoch: 06 July)

Event Time Altitude Azimuth Distance (km) Brightness Sun altitude
Rises 07:49:32 0° 252° (WSW) 3,389 9.3 25.0°
Reaches altitude 10° 07:52:22 10° 238° (WSW) 2,590 8.8 25.5°
Maximum altitude 07:57:19 24° 187° (S) 1,975 8.7 26.5°
Drops below altitude 10° 08:03:00 10° 137° (SE) 3,011 10.2 27.5°
Sets 08:06:35 0° 125° (SE) 4,071 10.9 28.2°
